DateTimeUTC,F1_A11,F1_S11,BsB_S11,BsG_S11,BsR_S11,BbsB_S11,BbsG_S11,BbsR_S11,BaB_A11,BaG_A11,BaR_A11,Tu_S11,T_S11,Uu_S11,U_S11,P_S11,T1_A11
2021-12-05T14:00:00Z,00000200,21000000,,,,,,,0000.10,0000.23,-000.44,21.0,27.6,,00.0,0630.9,31.3
2021-12-05T14:01:00Z,00000200,21000000,,,,,,,0000.23,0000.09,0000.27,21.0,27.6,,00.0,0630.9,31.3
2021-12-05T14:02:00Z,00000200,21000000,,,,,,,-000.37,-000.48,0000.25,21.0,27.7,,00.0,0630.9,31.3
2021-12-05T14:03:00Z,00000200,61000000,,,,,,,0000.31,0000.16,-000.43,21.0,27.7,,00.0,0630.8,31.3
2021-12-05T14:04:00Z,00000200,41000000,0000.02,-000.05,-000.08,-000.13,-000.06,-000.05,0000.04,0000.11,0000.04,21.1,27.5,,00.0,0631.5,31.2
2021-12-05T14:05:00Z,00000200,01000000,-000.04,-000.07,0000.13,-000.19,-000.01,-000.09,0000.15,0000.20,0000.31,21.1,27.5,,00.0,0631.6,31.2
2021-12-05T14:06:00Z,00000200,01000000,0000.66,0000.09,0000.03,0000.14,0000.09,0000.35,0000.14,-000.15,-000.19,21.0,27.4,,00.0,0631.6,31.2
2021-12-05T14:07:00Z,00000200,01000000,-000.12,0000.53,0000.38,-000.45,-000.01,0000.20,-000.16,0000.30,-000.32,21.0,27.4,,00.0,0631.7,31.2
2021-12-05T14:08:00Z,00000200,01000000,0000.52,0000.03,-000.05,-000.07,0000.06,0000.07,-000.15,-000.40,0000.02,21.0,27.4,,00.0,0631.8,31.2
2021-12-05T14:09:00Z,00000200,01000000,-000.49,0000.03,-000.12,-000.76,-000.25,-000.12,-000.06,-000.05,0000.56,21.0,27.4,,00.0,0632.0,31.2
2021-12-05T14:10:00Z,00000200,01000000,-000.45,0000.22,0000.16,0000.35,-000.13,0000.12,0000.27,0000.17,-000.15,21.1,27.4,,00.0,0632.1,31.2
2021-12-05T14:11:00Z,00000200,01000000,-000.65,0000.39,-000.05,0000.08,0000.15,0000.15,0000.38,0000.15,-000.08,21.1,27.4,,00.0,0632.3,31.2
2021-12-05T14:12:00Z,00000200,01000000,-000.15,-000.13,-000.12,-000.05,-000.34,-000.00,0000.24,0000.25,0000.67,21.2,27.5,,00.0,0632.5,31.2
2021-12-05T14:13:00Z,00000200,01000000,-000.12,0000.24,-000.04,0000.43,0000.26,0000.07,-000.18,0000.21,0000.07,21.2,27.5,,00.0,0632.6,31.3
2021-12-05T14:14:00Z,00000200,01000000,0000.04,-000.06,0000.04,0000.06,0000.02,0000.25,0000.17,0000.03,-000.22,21.3,27.5,,00.0,0632.8,31.3
2021-12-05T14:15:00Z,00000200,01000000,0000.12,0000.06,0000.05,0000.22,0000.07,0000.14,0000.10,0000.08,0000.10,21.4,27.5,,00.0,0632.9,31.3
2021-12-05T14:16:00Z,00000200,01000000,0000.25,-000.01,0000.14,0000.60,0000.18,0000.12,0000.29,0000.17,0000.27,21.4,27.6,,00.0,0633.1,31.3
2021-12-05T14:17:00Z,00000200,01000000,-000.28,0000.27,0000.50,0000.46,0000.20,0000.23,-000.01,0000.13,-000.04,21.5,27.6,,00.0,0633.2,31.3
2021-12-05T14:18:00Z,00000200,01000000,0000.20,0000.33,-000.18,0000.12,-000.17,0000.53,-000.31,0000.01,-000.09,21.5,27.7,,00.0,0633.2,31.4
2021-12-05T14:19:00Z,00000200,01000000,-000.30,0000.12,0000.20,-000.12,-000.01,0000.30,0000.24,-000.02,0000.26,21.6,27.7,,00.0,0633.2,31.4
2021-12-05T14:20:00Z,00000200,01000000,0000.30,0000.37,0000.11,-000.38,-000.09,-000.22,-000.02,-000.04,-000.15,21.7,27.7,,00.0,0633.3,31.4
2021-12-05T14:21:00Z,00000200,01000000,0000.20,0000.10,0000.12,0000.32,-000.06,0000.31,-000.02,0000.07,-000.14,21.6,27.7,,00.0,0633.3,31.4
2021-12-05T14:22:00Z,00000200,01000000,-000.18,0000.37,0000.29,0000.60,0000.06,0000.13,0000.14,0000.23,0000.24,21.6,27.7,,00.0,0633.3,31.4
2021-12-05T14:23:00Z,00000200,01000000,-000.67,0000.21,0000.09,-000.65,0000.06,-000.07,-000.07,-000.08,0000.29,21.6,27.7,,00.0,0633.4,31.5
2021-12-05T14:24:00Z,00000200,01000000,0000.22,0000.13,-000.04,0000.33,0000.09,0000.02,0000.06,0000.20,-000.09,21.7,27.8,,00.0,0633.4,31.5
2021-12-05T14:25:00Z,00000200,01000000,0000.74,0000.06,0000.27,0000.52,-000.05,0000.27,0000.07,-000.55,0000.05,21.7,27.8,,00.0,0633.4,31.5
2021-12-05T14:26:00Z,00000200,01000000,-000.13,0000.19,0000.35,0000.34,-000.07,0000.03,0000.37,0000.46,0000.08,21.8,27.8,,00.0,0633.4,31.5
2021-12-05T14:27:00Z,00000200,01000000,-001.36,0000.26,0000.11,0000.57,0000.02,-000.10,-000.15,0000.40,0000.23,21.9,27.9,,00.0,0633.4,31.5
2021-12-05T14:28:00Z,00000200,01000000,-000.14,0000.07,0000.28,0000.01,-000.27,0000.00,0000.17,-000.17,-000.05,21.9,27.9,,00.0,0633.5,31.6
2021-12-05T14:29:00Z,00000200,01000000,-000.16,0000.31,-000.08,-000.23,0000.01,-000.06,-000.08,0000.20,-000.03,22.0,27.9,,00.0,0633.6,31.6
2021-12-05T14:30:00Z,00000200,01000000,0000.35,0000.04,0000.02,-000.80,0000.05,0000.08,0000.35,0000.34,-000.10,22.0,28.0,,00.0,0633.6,31.6
2021-12-05T14:31:00Z,00000200,01000000,-000.17,0000.03,-000.12,-000.28,0000.15,-000.00,-000.26,-000.34,0000.44,22.1,28.0,,00.0,0633.7,31.6
2021-12-05T14:32:00Z,00000200,01000000,0000.41,0000.28,0000.27,0000.82,-000.21,0000.25,0000.42,-000.02,-000.11,22.1,28.1,,00.0,0633.7,31.7
2021-12-05T14:33:00Z,00000200,01000000,-000.49,0000.48,0000.56,-000.37,-000.23,-000.17,0000.05,0000.40,0000.02,22.1,28.1,,00.0,0633.7,31.7
2021-12-05T14:34:00Z,00000200,01000000,-000.15,0000.28,-000.06,0000.32,0000.22,-000.12,-000.22,-000.23,0000.19,22.0,28.1,,00.0,0633.6,31.7
2021-12-05T14:35:00Z,00000200,01000000,-000.22,0000.18,0000.29,-000.41,-000.11,0000.03,0000.12,0000.19,-000.22,21.9,28.0,,00.0,0633.7,31.6
2021-12-05T14:36:00Z,00000200,01000000,-000.25,0000.69,0000.01,-000.01,0000.14,0000.04,0000.28,-000.05,0000.01,21.9,28.0,,00.0,0633.7,31.6
2021-12-05T14:37:00Z,00000200,01000000,0000.47,0000.22,-000.17,-000.38,-000.35,0000.03,-000.17,-000.14,0000.07,21.8,27.9,,00.0,0633.6,31.6
2021-12-05T14:38:00Z,00000200,01000000,0000.06,0000.49,0000.29,-000.21,0000.03,0000.40,0000.22,0000.43,0000.11,21.7,27.9,,00.0,0633.5,31.6
2021-12-05T14:39:00Z,00000200,01000000,-000.09,0000.11,0000.36,-000.17,-000.13,0000.25,-000.17,-000.44,-000.05,21.7,27.9,,00.0,0633.6,31.6
2021-12-05T14:40:00Z,00000200,01000000,-000.06,0000.29,0000.31,-000.08,0000.07,0000.06,-000.08,0000.39,-000.05,21.6,27.9,,00.0,0633.6,31.6
2021-12-05T14:41:00Z,00000200,01000000,0000.02,0000.48,0000.42,-000.52,-000.23,-000.15,0000.14,-000.06,0000.28,21.5,27.8,,00.0,0633.7,31.5
2021-12-05T14:42:00Z,00000200,01000000,0000.40,0000.49,0000.11,0000.36,-000.11,-000.10,0000.17,0000.01,-000.29,21.5,27.8,,00.0,0633.7,31.5
2021-12-05T14:43:00Z,00000200,01000000,0000.24,0000.55,0000.29,-000.05,0000.11,0000.18,0000.01,0000.02,0000.02,21.4,27.8,,00.0,0633.7,31.5
2021-12-05T14:44:00Z,00000200,01000000,-000.32,0000.15,0000.09,0000.62,0000.04,0000.09,0000.10,-000.03,-000.06,21.4,27.7,,00.0,0633.8,31.5
2021-12-05T14:45:00Z,00000200,01000000,0000.05,0000.09,0000.31,0000.27,-000.06,0000.34,-000.03,0000.36,0000.50,21.3,27.7,,00.0,0633.8,31.5
2021-12-05T14:46:00Z,00000200,01000000,-000.20,-000.10,-000.03,0000.11,-000.57,0000.18,-000.11,0000.06,-000.24,21.3,27.7,,00.0,0633.8,31.4
2021-12-05T14:47:00Z,00000200,01000000,0000.31,0000.16,0000.40,-000.25,0000.24,0000.63,0000.18,-000.48,-000.06,21.2,27.6,,00.0,0633.8,31.4
2021-12-05T14:48:00Z,00000200,01000000,0000.39,0000.09,0000.34,0000.17,0000.07,0000.13,0000.09,0000.10,-000.04,21.2,27.6,,00.0,0633.8,31.4
2021-12-05T14:49:00Z,00000200,01000000,-000.09,0000.32,-000.02,0000.31,-000.05,0000.38,0000.12,0000.08,0000.30,21.1,27.6,,00.0,0633.8,31.4
2021-12-05T14:50:00Z,00000200,01000000,0000.60,-000.06,-000.44,-000.14,0000.07,0000.31,-000.00,0000.43,-000.25,21.0,27.5,,00.0,0633.8,31.3
2021-12-05T14:51:00Z,00000200,01000000,0000.39,0000.22,0000.12,0000.16,-000.25,0000.37,0000.20,-000.20,0000.04,21.0,27.5,,00.0,0633.8,31.3
2021-12-05T14:52:00Z,00000200,01000000,0000.07,0000.36,0000.27,0000.19,0000.12,0000.26,-000.27,-000.11,-000.20,21.0,27.4,00.0,00.0,0633.8,31.3
2021-12-05T14:53:00Z,00000200,01000000,-000.51,0000.27,-000.25,-000.18,-000.17,-000.47,-000.00,-000.06,0000.61,21.0,27.4,,00.0,0633.9,31.3
2021-12-05T14:54:00Z,00000200,01000000,0000.19,-000.15,0000.13,-000.04,0000.06,-000.38,0000.22,0000.15,-000.30,21.1,27.5,,00.0,0633.9,31.3
2021-12-05T14:55:00Z,00000200,01000000,0000.06,-000.10,0000.05,0000.33,-000.04,0000.09,0000.26,-000.10,0000.14,21.1,27.5,,00.0,0633.9,31.3
2021-12-05T14:56:00Z,00000200,01000000,0000.18,0000.15,-000.09,-000.30,-000.15,0000.25,0000.01,0000.16,0000.22,21.1,27.5,,00.0,0633.9,31.4
2021-12-05T14:57:00Z,00000200,41000000,,,,,,,0000.53,0000.47,0000.35,21.1,27.5,,00.0,0633.8,31.4
2021-12-05T14:58:00Z,00000200,61000000,,,,,,,-000.17,-000.19,-000.31,20.8,27.6,,00.0,0632.9,31.3
2021-12-05T14:59:00Z,00000200,21000000,,,,,,,-000.21,-000.11,-000.45,20.8,27.7,,00.0,0632.8,31.3
